This is the latest recevied weather packets stored in our database for station/object K0QJ. If no packets are shown the sender has not sent any weather packets the latest 10 day(s).
| Time | Temp. | Humidity | Pressure | Rain* | Wind** | Luminosity | Snow |
|---|---|---|---|---|---|---|---|
| 1778021021 | 10.56° C | 84% | 1010.4 hPa | 0 mm | - | 56 W/m² | - |
| 1778020718 | 10.56° C | 84% | 1010.4 hPa | 0 mm | - | 65 W/m² | - |
| 1778020415 | 10.56° C | 84% | 1010.6 hPa | 0 mm | - | 72 W/m² | - |
| 1778020111 | 10.56° C | 83% | 1010.6 hPa | 0 mm | - | 108 W/m² | - |
| 1778019807 | 10.56° C | 84% | 1010.7 hPa | 0 mm | - | 76 W/m² | - |
| 1778019505 | 10.56° C | 84% | 1010.6 hPa | 0 mm | - | 75 W/m² | - |
| 1778019201 | 10.56° C | 83% | 1010.6 hPa | 0 mm | - | 115 W/m² | - |
| 1778018898 | 10.56° C | 83% | 1010.9 hPa | 0 mm | - | 81 W/m² | - |
| 1778018595 | 10.56° C | 83% | 1010.7 hPa | 0 mm | - | 77 W/m² | - |
| 1778018293 | 10.56° C | 83% | 1010.4 hPa | 0 mm | - | 115 W/m² | - |
| 1778017991 | 10.56° C | 84% | 1010.8 hPa | 0 mm | - | 171 W/m² | - |
| 1778017688 | 10.56° C | 84% | 1010.4 hPa | 0 mm | - | 131 W/m² | - |
| 1778017386 | 10.56° C | 85% | 1011 hPa | 0 mm | - | 127 W/m² | - |
| 1778017083 | 10.56° C | 86% | 1010.8 hPa | 0 mm | - | 95 W/m² | - |
| 1778016781 | 10° C | 86% | 1010.5 hPa | 0 mm | - | 137 W/m² | - |
| 1778016475 | 10° C | 88% | 1010.6 hPa | 0 mm | - | 156 W/m² | - |
| 1778016173 | 10° C | 89% | 1010.7 hPa | 0 mm | - | 175 W/m² | - |
| 1778015870 | 9.44° C | 91% | 1010.9 hPa | 0 mm | - | 165 W/m² | - |
| 1778015568 | 9.44° C | 92% | 1010.9 hPa | 0 mm | - | 134 W/m² | - |
| 1778015263 | 9.44° C | 93% | 1010.9 hPa | 0 mm | - | 128 W/m² | - |
| 1778014961 | 8.89° C | 94% | 1011 hPa | 0 mm | - | 140 W/m² | - |
| 1778014658 | 8.89° C | 95% | 1011 hPa | 0 mm | - | 136 W/m² | - |
| 1778014356 | 8.89° C | 95% | 1010.8 hPa | 0 mm | - | 109 W/m² | - |
| 1778014052 | 8.89° C | 95% | 1010.9 hPa | 0 mm | - | 88 W/m² | - |
| 1778013750 | 8.33° C | 95% | 1010.9 hPa | 0 mm | - | 77 W/m² | - |
* Rain latest hour (hover to see other rain measurements)
** Current wind speed in m/s (hover to see current wind gust speed)